Location: Foligno
(42.9600°N, 12.7050°E)
Time: 07:31:33
(UTC+02:00)

OTV 5 (USA 277) - Visible Passes

Search period start: 19 October 2019 00:00
Search period end: 28 October 2019 23:00
Orbit: 310 x 324 km, 54.5° (Epoch: 08 October)

Date Brightness Start Highest point End Pass type
(mag) Time Alt. Az. Time Alt. Az. Time Alt. Az.
19 Oct ? 05:19:36 20° ENE 05:19:36 20° ENE 05:20:59 10° E visible
19 Oct ? 06:50:34 10° WNW 06:53:03 31° SW 06:55:31 10° SSE visible
20 Oct ? 05:34:13 35° E 05:34:13 35° E 05:36:04 10° ESE visible
21 Oct ? 05:48:58 31° SSE 05:48:58 31° SSE 05:50:37 10° SE visible
22 Oct ? 06:03:51 13° S 06:03:51 13° S 06:04:25 10° S visible
28 Oct ? 18:05:24 10° S 18:07:25 19° SE 18:07:55 18° ESE visible
